Погода в Красноуфимске

Погода в Красноуфимске : погода сейчас, прогноз погоды и архив. Всё, что Вы хотите узнать о погоде в Красноуфимске!

Хотите узнать прогноз погоды в Красноуфимске? Тогда Вам сюда: Погода в Красноуфимске

Поиск расширенной информации на нашем сайте:

Другие новости

Новости СМИ2

Главная страница сайта

Новости сайта

03.07.2017

Напоминаем, что на нашем специализированном сайте Метеоцентр.Азия вы можете получить высокодетализированные автоматические прогнозы погоды по пунктам России, СНГ и мира в авиационном формате (включающие направление и скорость ветра, видимость, явления погоды, количество и форму облачности, нижнюю и верхнюю границу облачности).

Рекомендуем: Работы по хозяйству; гарантия качества.

Погода в Красноуфимске - сегодня

Время (UTC), дата Ветер
(°,м/с) 
Видим.   Явления Облачность Т
(°С)
Тd
(°С)
f(%) Тe
(°С)
Pmin
(гПа)
dP
(гПа)
Po
(мм)
O2
(г/м3)
Тmin Tmax R s Состояние
почвы
18 17.07.17 тихо ()   20000 м    10/10 600 м кучево-дожд. 
[Cb cap]
+17.4 +15.4 88 +27  1015.5  1.6  744  278           
21 17.07.17 тихо ()   20000 м  {ливн. осадки}  9/3 600 м кучево-дожд., верхняя 
[Cb cap|Ci fib]
+14.6 +13.9 96 +22  1016.4  0.6  744  282           
00 18.07.17 тихо ()   20000 м  {ливн. осадки}  9/0 
+12.3 +11.7 96 +16  1017.4  0.8  745  285           
03 18.07.17 тихо ()   20000 м    9/8 600 м кучево-дожд., верхняя 
[Cb cap|Ci fib]
+16.1 +15.4 96 +26  1017.5  0.5  745  280  +11.8    0.4    влажная 
06 18.07.17 180 (Ю) 20000 м    3/0 верхняя 
[Ci fib]
+22 +15.3 66 +31  1017  745  275           
09 18.07.17 140 (ЮВ) 20000 м    3/0 
[Cu hum]
+24.4 +14.3 53 +32  1016.9  745  273           
12 18.07.17 170 (Ю) 20000 м    3/3 1000 м 
[Cu hum]
+25.2 +12.8 46 +30  1016.1  -0.7  744  272           
18 18.07.17 190 (Ю) 20000 м    3/0 верхняя 
[Ci fib]
+14.6 +13.5 93 +22  1016.2  0.2  744  282           
21 18.07.17 тихо ()   20000 м    ясно 
+11.4 +11.2 99 +14  1016.1  -0.3  744  285           
00 19.07.17 тихо ()   20000 м    6/6 600 м кучево-дожд. 
[Cb cap]
+10.6 +10.2 97 +12  1015.8  -0.4  743  286           
03 19.07.17 тихо ()   20000 м  ливневой дождь  9/9 600 м кучево-дожд. 
[Cb cap]
+16 +13.9 87 +23  1015.3  743  280  +9.9    0.3    влажная 
06 19.07.17 090 (В) 20000 м  {ливн. осадки}  9/9 600 м кучево-дожд. 
[Cb cap]
+19.1 +16.3 84 +32  1015.1  743  276           
09 19.07.17 050 (СВ) 20000 м  гроза без осадков{ливн. осадки}  10/10 600 м кучево-дожд. 
[Cb cap]
+20.1 +17.8 87 +34  1015  743  275           
12 19.07.17 тихо ()   20000 м  {гроза, ливн. осадки}  9/9 600 м кучево-дожд. 
[Cb cap]
+23.2 +17.1 69 +36  1013.4  -1.2  742  272           
18 19.07.17 090 (В) 20000 м    3/0 средняя, верхняя 
[Ac trans|Ci fib]
+15.2 +14.5 96 +25  1014.8  0.8  743  281           
21 19.07.17 тихо ()   20000 м    9/0 средняя, верхняя 
[Ac trans|Ci fib]
+13.4 +13 97 +19  1015  743  283           
00 20.07.17 тихо ()   20000 м    ясно 
+10 +9.8 99 +11  1015.3  743  287           
06 20.07.17 030 (СВ) 20000 м    4/4 600 м кучево-дожд. 
[Cb cap]
+22.4 +15.4 65 +32  1014.6  -0.3  743  274           
09 20.07.17 020 (С) 20000 м    4/4 600 м кучево-дожд. 
[Cb cap]
+24.4 +13.5 51 +31  1014.3  -0.2  743  272           
12 20.07.17 040 (СВ) 20000 м    3/3 600 м 
+25 +14 50 +32  1013.2  -0.9  742  271           
15 20.07.17 280 (З) 20000 м    ясно 
+23.5 +14.2 56 +31  1013.3  742  273    +25.3       
18 20.07.17 тихо ()   20000 м    ясно 
+15.4 +14.3 93 +23  1014.5  0.4  743  280           
21 20.07.17 тихо ()   20000 м    ясно 
+12.3 +11.9 97 +16  1015.2  0.4  743  284           
00 21.07.17 тихо ()   4000 м  дымка  ясно 
+10.4 +10 97 +12  1015.6  0.3  743  287           
06 21.07.17 320 (СЗ) 20000 м    3/1 1000 м верхняя 
[Cu hum|Ci fib]
+24 +16.2 62 +35  1014.9  0.2  743  272           
Время (UTC), дата Ветер
(°,м/с) 
Видим.   Явления Облачность Т
(°С)
Тd
(°С)
f(%) Тe
(°С)
Pmin
(гПа)
dP
(гПа)
Po
(мм)
O2
(г/м3)
Тmin Tmax R s Состояние
почвы

Для получения пояснительной информации подведите курсор к названию столбца.

ПОГОДА в Красноуфимске - архив

Всё, что Вы хотите узнать о погоде в Красноуфимске - удобно и подробно!

Выберите нужную дату (начиная с 1 января 2015* года) и нажмите кнопку "Найти".
Будут отображены архивные сводки погоды по пункту Красноуфимск, начиная с указанной даты.


Отображать данные в формате CSV (для использования в таблицах Excel)


Внимание! Наш архив погоды предназначен исключительно для личного некоммерческого использования в познавательных целях. Если Вам необходимы официальные справки о состоянии погоды (для производственных, юридических, коммерческих и т.п. целей), обращайтесь в органы Росгидромета.

*Примечание: данная дата относится к архиву по метеостанциям СССР (Россия, СНГ, Балтия).
Архив по метеостанциям Зарубежной Европы и Азии (кроме Китая) хранится 10 дней, по другим регионам земного шара (Китай, Африка, Америка, Австралия, Океания) - 1 день.

Красноуфимск - район местоположения метеостанции


Название, широта, долгота, высота метеостанции:
Красноуфимск 56.6°ш. 57.8°д. 206 м над ур. моря [Российская Федерация]

Дополнительная информация

В oтличие oт бoльшинства пoгoдных сайтoв мы публикуем пoдрoбную метеoинфoрмацию в детальнoм прoфессиoнальнoм фoрмате.

Характеристики температуры и влажнoсти вoздуха измеряются на высoте 2 м в тени вдали oт зданий и деревьев.
Скoрoсть ветра измеряется на высoте 10 м (на урoвне рoста челoвека скoрoсть ветра ниже в 1.5-2 раза). Если метеoстанция нахoдится в гoрoде или в лесу, тo скoрoсть ветра занижена на 2-4 м/с пo сравнению с oткрытым местoм. Скoрoсть ветра над акватoриями крупных рек и oзёр, а также на вершинах хoлмoв на 2-5 м/с выше, чем в oбычных услoвиях.
Атмoсфернoе давление в разных тoчках местнoсти мoжет значительнo oтличаться oт давления на метеoстанции, в зависимoсти oт услoвий рельефа (при пoдъёме на 10 м давление пoнижается примернo на 1 мм рт.ст.).